STARLINK-34934, 65897

Orbit data source: Space-Track

STARLINK-34934, 65897 is a payload satellite owned by SpaceX/Seattle (US) in LEO that was launched on Tue, 07 Oct 2025 UTC via an FALCON 9 launch vehicle from the Air Force Eastern Test Range (AFETR). Payload-class satellites include a variety of spacecraft equipped with specific instruments for various scientific and technological missions. These include communications satellites like Starlink; space stations such as the ISS; scientific satellites like the Hubble; Earth observation satellites from companies like Planet Labs, Umbra, and HawkEye 360; GPS; miniature CubeSats for education and research; and military/defense satellites.

Loading next visibility...
Identifier
65897, 2025-224R
Orbit
LEO
Country
Flag of USUS
Related business
Manufacturer
SpaceX/Seattle
Mission
Operational spacecraft
Bus & Motor
STARLINK V2MO, Unknown motor
Mass
575 kg wet, ~530 kg dry
Launch date (UTC)
2025-10-07 (2 months ago)
Launch vehicle
FALCON 9
Launch site
Air Force Eastern Test Range (AFETR)
Object type
Payload
Rocket body
Debris
Shape & HBR
Unknown shape, 17.7 m
Radar Cross Section
RCS unknown

Expand to show TLE details & history
Last TLE update: 16 hours ago

TLE from 16 hours ago
0 STARLINK-34934
1 65897U 25224R   25340.72808248  .00040299  00000-0  13638-2 0  9990
2 65897  53.1601  82.9813 0000571 141.7891 218.3151 15.30236739 10593
Epoch: 2025-12-06T17:28Z
TLE epoch observation values (Epoch: 2025-12-06T17:28:26.326Z)
Latitude
0.00004°
Longitude
105.11998°
Altitude
476.312 km
Speed
7.629 km/s
True Right ascension
05h 31m 55s
True Declination
0° 00' 00"
Sunlit
Object was in full shadow at epoch
Visualization orbit readout
Latitude
Unknown
Longitude
Unknown
Altitude
Unknown
Speed
Unknown
Apparent Right ascension
Unknown
Apparent Declination
Unknown
Sunlit
N/A
Visualization observer readout
Local Sidereal Time
07:18:38
Azimuth
Unknown
Elevation
Unknown
Doppler factor
Unknown
Orbital elements
Apogee altitude
475.753 km
Perigee altitude
474.97 km
Semi-major axis
6,853.499 km
Eccentricity
0.00006
Inclination
53.1601°
RAAN
82.9813°
Arg. of periapsis
141.7891°
True anomaly
218.31104°
Mean anomaly
218.3151°
Eccentric anomaly
218.31307°
Mean motion
3.82538 °/min
Orbital period
94.11 mins
BSTAR
0.0013638
Loading maneuver chart data...
Computing Atmospheric mass density...
Loading historical data...
Loading historical data...
Loading historical data...
Loading historical data...
Loading historical data...
Loading historical data...
Loading historical data...

Documentation

Showing up to 5 results
|